{"data":{"norad_id":53915,"epoch":"2026-05-25T04:00:03.998880Z","epoch_age_seconds":67567,"freshness":"FRESH","line1":"1 53915U 22119AF  26145.16671295  .00693781  20693-3  20006-2 0  9990","line2":"2 53915  53.2163 310.3544 0000795   1.3084 174.4660 15.92521922  5979","mean_motion":15.92521922,"eccentricity":7.95e-5,"inclination_deg":53.2163,"raan_deg":310.3544,"arg_perigee_deg":1.3084,"mean_anomaly_deg":174.466,"bstar":0.0020006,"rev_number":597,"period_min":90.422617114843,"perigee_km":294.69771057445,"apogee_km":295.7587756481,"semimajor_km":6673.3652431113,"source":"CELESTRAK","updated_at":"2026-05-25T13:38:17.612058Z"}}